{"data":{"norad_id":63829,"epoch":"2026-09-20T23:28:30.361152Z","epoch_age_seconds":108535,"freshness":"FRESH","line1":"1 63829U 25092AB  26263.97812918  .00011713  00000+0  43440-3 0  9990","line2":"2 63829  42.9996 149.4696 0000377 214.0482 146.0346 15.27587591 78421","mean_motion":15.27587591,"eccentricity":3.77e-5,"inclination_deg":42.9996,"raan_deg":149.4696,"arg_perigee_deg":214.0482,"mean_anomaly_deg":146.0346,"bstar":0.0004344,"rev_number":7842,"period_min":94.266280276428,"perigee_km":482.76770009004,"apogee_km":483.28503180783,"semimajor_km":6861.1633659489,"source":"CELESTRAK","updated_at":"2026-09-21T09:00:35.109300Z"}}